Memphis, TN

4:25 AM CDT on May 29, 2017 (GMT -0500)
Memphis International

Weather History for KMEM - July, 2013

Change the Weather History Date:

Thursday, July 18, 2013

  Actual Average Record
Temperature  
Mean Temperature 84 °F 83 °F  
Max Temperature 95 °F 92 °F 104 °F (1954)
Min Temperature 73 °F 74 °F 62 °F (1960)
Degree Days  
Heating Degree Days 0 0  
Month to date heating degree days 0 0  
Since 1 June heating degree days 0 0  
Since 1 July heating degree days 0 0  
Cooling Degree Days 19 18  
Month to date cooling degree days 290 320  
Year to date cooling degree days 1025 1079  
Since 1 June cooling degree days 740 758  
Growing Degree Days 34 (Base 50)    
Moisture  
Dew Point 71 °F    
Average Humidity 71    
Maximum Humidity 93    
Minimum Humidity 49    
Precipitation  
Precipitation 0.72 in 0.16 in 2.13 in (1877)
Month to date precipitation 0.85 2.62  
Year to date precipitation 40.90 30.53  
Snow  
Snow 0.00 in 0.00 in - ()
Month to date snowfall 0.0 0.0  
Since 1 June snowfall 0.0 0.0  
Since 1 July snowfall 0.0 0.0  
Snow Depth 0.00 in    
Sea Level Pressure  
Sea Level Pressure 30.10 in    
Wind  
Wind Speed 5 mph (NNE)    
Max Wind Speed 28 mph    
Max Gust Speed 33 mph    
Visibility 9 miles    
Events Rain , Thunderstorm    
T = Trace of Precipitation, MM = Missing Value Source: NWS Daily Summary

Daily Weather History Graph

Daily Weather History Graph

Search for Another Location

Airport or City:

Trip Planner

Search our weather history database for the weather conditions in past years. The results will help you decide how hot, cold, wet, or windy it might be!

Date:

Astronomy

Jul. 18, 2013 Rise Set
Actual Time 5:59 AM CDT 8:12 PM CDT
Civil Twilight 5:30 AM CDT 8:41 PM CDT
Nautical Twilight 4:55 AM CDT 9:16 PM CDT
Astronomical Twilight 4:17 AM CDT 9:54 PM CDT
Moon 4:10 PM CDT (7/18) 1:47 AM CDT (7/18)
Length of Visible Light 15h 10m
Length of Day
14h 13m
Waxing Gibbous, 77% of the Moon is Illuminated
Jul 18
Waxing Gibbous
Jul 22
Full
Jul 29
Last Quarter
Aug 6
New
Aug 14
First Quarter

Hourly Weather History & Observations

Time (CDT) Temp. Heat Index Dew Point Humidity Pressure Visibility Wind Dir Wind Speed Gust Speed Precip Events Conditions
12:54 AM 84.9 °F 90.7 °F 72.0 °F 65% 30.18 in 10.0 mi NNW 3.5 mph - N/A   Overcast
1:54 AM 82.9 °F 88.0 °F 72.0 °F 69% 30.16 in 10.0 mi Calm Calm - N/A   Scattered Clouds
2:54 AM 82.0 °F 86.7 °F 72.0 °F 71% 30.14 in 10.0 mi North 3.5 mph - N/A   Scattered Clouds
3:54 AM 84.9 °F 90.7 °F 72.0 °F 65% 30.14 in 10.0 mi Variable 5.8 mph - N/A   Scattered Clouds
4:54 AM 82.0 °F 86.7 °F 72.0 °F 71% 30.14 in 10.0 mi Calm Calm - N/A   Mostly Cloudy
5:54 AM 80.1 °F 83.8 °F 72.0 °F 76% 30.14 in 10.0 mi Calm Calm - N/A   Mostly Cloudy
6:54 AM 82.9 °F 89.4 °F 73.9 °F 74% 30.14 in 10.0 mi Calm Calm - N/A   Mostly Cloudy
7:54 AM 84.9 °F 91.4 °F 73.0 °F 67% 30.14 in 10.0 mi NNE 3.5 mph - N/A   Scattered Clouds
8:54 AM 86.0 °F 93.0 °F 73.0 °F 65% 30.16 in 10.0 mi NE 6.9 mph - N/A   Mostly Cloudy
9:54 AM 87.1 °F 94.5 °F 73.0 °F 63% 30.16 in 10.0 mi East 8.1 mph - N/A   Mostly Cloudy
10:54 AM 89.1 °F 96.0 °F 72.0 °F 57% 30.15 in 10.0 mi ENE 8.1 mph - N/A   Overcast
11:54 AM 91.9 °F 99.5 °F 72.0 °F 52% 30.13 in 10.0 mi Variable 5.8 mph - N/A   Scattered Clouds
12:54 PM 93.0 °F 100.1 °F 71.1 °F 49% 30.08 in 10.0 mi NE 8.1 mph - N/A   Scattered Clouds
1:25 PM 93.2 °F 100.5 °F 71.6 °F 49% 30.07 in 10.0 mi NE 8.1 mph 20.7 mph N/A Thunderstorm Thunderstorm
1:54 PM 88.0 °F 91.4 °F 68.0 °F 51% 30.06 in 10.0 mi ESE 18.4 mph 27.6 mph N/A Thunderstorm Thunderstorm
1:58 PM 87.8 °F 90.4 °F 66.2 °F 49% 30.08 in 2.0 mi East 18.4 mph 27.6 mph N/A Thunderstorm Unknown
2:04 PM 82.4 °F 87.2 °F 71.6 °F 70% 30.08 in 1.5 mi ENE 25.3 mph 33.4 mph 0.00 in Rain , Thunderstorm Thunderstorms and Rain
2:10 PM 78.8 °F - 66.2 °F 65% 30.07 in 9.0 mi West 11.5 mph 33.4 mph 0.12 in Rain , Thunderstorm Light Thunderstorms and Rain
2:54 PM 81.0 °F 86.2 °F 73.9 °F 79% 30.05 in 10.0 mi West 6.9 mph - 0.12 in   Overcast
3:54 PM 77.0 °F - 71.1 °F 82% 30.06 in 10.0 mi SW 12.7 mph 24.2 mph N/A   Overcast
4:15 PM 78.8 °F - 71.6 °F 78% 30.09 in 1.8 mi SE 12.7 mph 18.4 mph N/A Thunderstorm Overcast
4:21 PM 77.0 °F - 71.6 °F 83% 30.08 in 0.8 mi Variable 6.9 mph 18.4 mph 0.07 in Rain , Thunderstorm Thunderstorms and Rain
4:28 PM 75.2 °F - 71.6 °F 89% 30.06 in 2.0 mi West 8.1 mph - 0.27 in Rain , Thunderstorm Heavy Thunderstorms and Rain
4:45 PM 75.2 °F - 71.6 °F 89% 30.10 in 7.0 mi North 6.9 mph - 0.29 in Rain , Thunderstorm Light Thunderstorms and Rain
4:54 PM 75.9 °F - 72.0 °F 87% 30.12 in 7.0 mi NNE 10.4 mph - 0.29 in Thunderstorm Thunderstorm
5:10 PM 75.2 °F - 71.6 °F 89% 30.15 in 6.0 mi NE 16.1 mph 24.2 mph 0.00 in Rain , Thunderstorm Light Thunderstorms and Rain
5:54 PM 73.0 °F - 71.1 °F 93% 30.08 in 9.0 mi North 4.6 mph - 0.21 in Rain , Thunderstorm Light Thunderstorms and Rain
6:31 PM 73.4 °F - 71.6 °F 94% 30.09 in 10.0 mi North 4.6 mph - 0.08 in Rain Light Rain
6:54 PM 73.0 °F - 71.1 °F 93% 30.06 in 10.0 mi North 4.6 mph - 0.10 in Rain Light Rain
7:54 PM 73.9 °F - 71.1 °F 91% 30.06 in 10.0 mi Calm Calm - 0.00 in   Mostly Cloudy
8:54 PM 73.9 °F - 71.1 °F 91% 30.05 in 10.0 mi Calm Calm - N/A   Mostly Cloudy
9:27 PM 73.4 °F - 69.8 °F 88% 30.06 in 10.0 mi Calm Calm - N/A   Mostly Cloudy
9:54 PM 73.9 °F - 72.0 °F 93% 30.06 in 10.0 mi Calm Calm - N/A   Mostly Cloudy
10:20 PM 73.4 °F - 68.0 °F 83% 30.07 in 8.0 mi Calm Calm - N/A   Scattered Clouds
10:54 PM 73.9 °F - 66.9 °F 79% 30.06 in 10.0 mi Calm Calm - N/A   Partly Cloudy
11:54 PM 73.9 °F - 70.0 °F 87% 30.06 in 10.0 mi Calm Calm - N/A   Partly Cloudy